CW2751 Weather Reports


Display with metric or nautical units.
time (UTC)temp
F
wind
direction
speed
MPH
gust
MPH
rain 1hr
in
rain 24hr
in
rain mn
in
humidity
%
barometer
mb
20260503033011 59 219 4.0 0.0 0.00 0.00 0.00 29 1008.9
20260503031516 60 192 4.0 0.0 0.00 0.00 0.00 28 1009.0
20260503030035 61 190 5.0 0.0 0.00 0.00 0.00 28 1009.2
20260503024559 61 199 3.0 0.0 0.00 0.00 0.00 27 1009.2
20260503023102 63 202 2.0 0.0 0.00 0.00 0.00 27 1008.8
20260503023002 63 198 2.0 0.0 0.00 0.00 0.00 26 1008.8
20260503021529 64 209 2.0 0.0 0.00 0.00 0.00 26 1008.5
20260503020106 66 207 3.0 0.0 0.00 0.00 0.00 23 1008.7
20260503014524 69 188 2.0 0.0 0.00 0.00 0.00 21 1008.2
20260503013020 71 226 2.0 0.0 0.00 0.00 0.00 18 1007.9
20260503011553 74 224 1.0 0.0 0.00 0.00 0.00 16 1007.7
20260503010053 73 233 2.0 0.0 0.00 0.00 0.00 16 1008.7
20260503004604 74 255 2.0 0.0 0.00 0.00 0.00 15 1008.7
20260503003016 74 271 4.0 0.0 0.00 0.00 0.00 15 1008.9
20260503001557 74 274 4.0 0.0 0.00 0.00 0.00 15 1009.1
20260503000035 74 298 5.0 0.0 0.00 0.00 0.00 14 1009.7
20260502234615 74 238 5.0 0.0 0.00 0.00 0.00 16 1009.8
20260502233003 74 260 5.0 0.0 0.00 0.00 0.00 15 1009.9
20260502231531 75 285 3.0 0.0 0.00 0.00 0.00 16 1009.7
20260502230032 75 327 3.0 0.0 0.00 0.00 0.00 15 1009.7
20260502224557 74 261 4.0 0.0 0.00 0.00 0.00 17 1010.2
20260502223012 74 301 7.0 0.0 0.00 0.00 0.00 16 1010.3
20260502221507 74 241 4.0 0.0 0.00 0.00 0.00 18 1010.4
20260502220009 73 258 4.0 0.0 0.00 0.00 0.00 19 1010.7
20260502214517 73 202 4.0 0.0 0.00 0.00 0.00 19 1010.9
20260502213023 72 243 7.0 0.0 0.00 0.00 0.00 19 1011.6
20260502211550 72 237 4.0 0.0 0.00 0.00 0.00 20 1011.5
20260502210051 72 102 5.0 0.0 0.00 0.00 0.00 21 1011.9
20260502204553 71 230 5.0 0.0 0.00 0.00 0.00 20 1012.3
20260502203113 70 246 5.0 0.0 0.00 0.00 0.00 20 1012.8
20260502201532 70 230 4.0 0.0 0.00 0.00 0.00 24 1012.8
20260502200038 69 202 4.0 0.0 0.00 0.00 0.00 24 1013.3
20260502194555 68 198 7.0 0.0 0.00 0.00 0.00 26 1013.2
20260502193017 67 219 5.0 0.0 0.00 0.00 0.00 27 1013.7
20260502191504 66 257 5.0 0.0 0.00 0.00 0.00 28 1014.1
20260502190009 66 192 4.0 0.0 0.00 0.00 0.00 31 1013.7
20260502184534 64 262 6.0 0.0 0.00 0.00 0.00 32 1014.1
20260502183037 64 227 5.0 0.0 0.00 0.00 0.00 33 1014.7
20260502181540 62 233 6.0 0.0 0.00 0.00 0.00 35 1014.9
20260502163023 56 166 5.0 0.0 0.00 0.00 0.00 44 1016.7
20260502161544 55 195 5.0 0.0 0.00 0.00 0.00 47 1017.0
20260502151559 51 172 5.0 0.0 0.00 0.00 0.00 58 1017.5
20260502151502 51 175 5.0 0.0 0.00 0.00 0.00 57 1017.5
20260502123111 34 267 2.0 0.0 0.00 0.00 0.00 86 1017.3
20260502121509 34 255 2.0 0.0 0.00 0.00 0.00 86 1017.5
20260502114525 34 20 1.0 0.0 0.00 0.00 0.00 85 1016.9
20260502113032 34 20 1.0 0.0 0.00 0.00 0.00 85 1016.7
20260502111523 34 20 0.0 0.0 0.00 0.00 0.00 85 1016.6
20260502110036 34 20 0.0 0.0 0.00 0.00 0.00 85 1016.5
20260502104553 34 20 0.0 0.0 0.00 0.00 0.00 84 1016.5
20260502103057 34 20 0.0 0.0 0.00 0.00 0.00 83 1016.6
20260502101506 34 20 0.0 0.0 0.00 0.00 0.00 83 1016.2
20260502091527 35 20 1.0 0.0 0.00 0.00 0.00 80 1016.1
20260502071518 41 199 1.0 0.0 0.00 0.00 0.00 73 1014.9
20260502070012 42 199 2.0 0.0 0.00 0.00 0.00 73 1015.1
20260502064514 42 195 2.0 0.0 0.00 0.00 0.00 72 1015.0
20260502063025 42 169 2.0 0.0 0.00 0.00 0.00 72 1014.9
20260502061526 42 172 2.0 0.0 0.00 0.00 0.00 72 1014.9
20260502060033 42 154 2.0 0.0 0.00 0.00 0.00 72 1014.8
20260502054552 42 166 2.0 0.0 0.00 0.00 0.00 71 1014.8
20260502053021 42 130 2.0 0.0 0.00 0.00 0.00 71 1014.7
20260502051558 43 118 2.0 0.0 0.00 0.00 0.00 70 1014.6
20260502050051 43 113 2.0 0.0 0.00 0.00 0.00 69 1014.9
20260502044623 43 142 2.0 0.0 0.00 0.00 0.00 68 1014.9
20260502044501 43 145 2.0 0.0 0.00 0.00 0.00 68 1014.9
20260502043003 44 94 2.0 0.0 0.00 0.00 0.00 67 1014.8
20260502041504 44 117 2.0 0.0 0.00 0.00 0.00 66 1014.6
20260502040009 45 107 3.0 0.0 0.00 0.00 0.00 64 1014.6
20260502034511 46 99 2.0 0.0 0.00 0.00 0.00 62 1014.4